Weather History for PAGY - March, 2013

Change the Weather History Date:

Sunday, March 17, 2013

  Actual Average Record
Temperature  
Mean Temperature 24 °F -  
Max Temperature 28 °F 36 °F 57 °F (1970)
Min Temperature 19 °F 25 °F 3 °F (2006)
Degree Days  
Heating Degree Days 42    
Moisture  
Dew Point 0 °F    
Average Humidity 37    
Maximum Humidity 42    
Minimum Humidity 29    
Precipitation  
Precipitation 0.00 in - - ()
Sea Level Pressure  
Sea Level Pressure 30.14 in    
Wind  
Wind Speed 14 mph (NNE)    
Max Wind Speed 22 mph    
Max Gust Speed 28 mph    
Visibility 10 miles    
Events      
Averages and records for this station are not official NWS values.
T = Trace of Precipitation, MM = Missing Value Source: NWS Daily Summary

Daily Weather History Graph

Daily Weather History Graph

Search for Another Location

Airport or City:

Trip Planner

Search our weather history database for the weather conditions in past years. The results will help you decide how hot, cold, wet, or windy it might be!

Date:

Astronomy

Mar. 17, 2013 Rise Set
Actual Time 7:10 AM AKDT 7:09 PM AKDT
Civil Twilight 6:29 AM AKDT 7:50 PM AKDT
Nautical Twilight 5:41 AM AKDT 8:39 PM AKDT
Astronomical Twilight 4:49 AM AKDT 9:31 PM AKDT
Moon 9:06 AM AKDT (3/17) 1:45 AM AKDT (3/17)
Length of Visible Light 13h 20m
Length of Day
11h 59m
Waxing Crescent, 33% of the Moon is Illuminated
Mar 17
Waxing Crescent
Mar 19
First Quarter
Mar 27
Full
Apr 2
Last Quarter
Apr 10
New

Hourly Weather History & Observations

Time (AKDT) Temp. Windchill Dew Point Humidity Pressure Visibility Wind Dir Wind Speed Gust Speed Precip Events Conditions
12:53 AM 21.9 °F 8.7 °F 1.0 °F 40% 30.13 in 10.0 mi NNE 15.0 mph 25.3 mph N/A   Clear
1:53 AM 21.9 °F 10.4 °F -0.0 °F 38% 30.14 in 10.0 mi NNE 11.5 mph 24.2 mph N/A   Clear
2:53 AM 21.0 °F 8.1 °F -0.0 °F 40% 30.15 in 10.0 mi NNE 13.8 mph 23.0 mph N/A   Clear
3:53 AM 21.0 °F 8.6 °F -0.0 °F 40% 30.16 in 10.0 mi North 12.7 mph 24.2 mph N/A   Clear
4:53 AM 19.9 °F 5.2 °F -0.0 °F 42% 30.15 in 10.0 mi NNE 17.3 mph 25.3 mph N/A   Partly Cloudy
5:53 AM 21.0 °F 9.3 °F 1.0 °F 42% 30.16 in 10.0 mi NNE 11.5 mph 26.5 mph N/A   Clear
6:53 AM 21.0 °F 7.6 °F -0.0 °F 40% 30.16 in 10.0 mi NNE 15.0 mph 26.5 mph N/A   Clear
7:53 AM 19.9 °F 5.2 °F -0.0 °F 42% 30.17 in 10.0 mi NNE 17.3 mph - N/A   Mostly Cloudy
8:53 AM 21.0 °F 6.6 °F -0.0 °F 40% 30.17 in 10.0 mi NNE 17.3 mph 24.2 mph N/A   Mostly Cloudy
9:53 AM 21.9 °F 7.3 °F -0.0 °F 38% 30.16 in 10.0 mi NNE 18.4 mph 27.6 mph N/A   Mostly Cloudy
10:53 AM 23.0 °F 8.7 °F -0.0 °F 37% 30.17 in 10.0 mi NNE 18.4 mph 24.2 mph N/A   Partly Cloudy
11:53 AM 25.0 °F 11.3 °F -0.0 °F 34% 30.17 in 10.0 mi NE 18.4 mph 27.6 mph N/A   Clear
12:53 PM 25.0 °F 11.3 °F -0.0 °F 34% 30.17 in 10.0 mi NE 18.4 mph - N/A   Clear
1:53 PM 27.0 °F 14.7 °F -0.0 °F 31% 30.16 in 10.0 mi NE 16.1 mph 27.6 mph N/A   Clear
2:53 PM 28.0 °F 14.3 °F -0.0 °F 30% 30.15 in 10.0 mi NE 21.9 mph 26.5 mph N/A   Clear
3:53 PM 28.0 °F 16.1 °F -0.9 °F 29% 30.13 in 10.0 mi NNE 16.1 mph - N/A   Clear
4:53 PM 28.0 °F 16.5 °F -0.0 °F 30% 30.12 in 10.0 mi NE 15.0 mph - N/A   Clear
5:53 PM 26.1 °F 16.2 °F -0.0 °F 32% 30.11 in 10.0 mi NNE 10.4 mph - N/A   Clear
6:53 PM 25.0 °F 14.8 °F -0.0 °F 34% 30.10 in 10.0 mi NE 10.4 mph - N/A   Clear
7:53 PM 23.0 °F 17.0 °F 1.0 °F 39% 30.12 in 10.0 mi NNE 4.6 mph - N/A   Clear
8:53 PM 21.0 °F 14.6 °F -0.0 °F 40% 30.12 in 10.0 mi NNE 4.6 mph - N/A   Clear
9:53 PM 21.9 °F 11.0 °F -2.0 °F 35% 30.10 in 10.0 mi NNE 10.4 mph 17.3 mph N/A   Clear
10:53 PM 19.9 °F 14.9 °F -2.0 °F 38% 30.10 in 10.0 mi NE 3.5 mph - N/A   Clear
11:53 PM 19.9 °F 14.9 °F -0.9 °F 40% 30.09 in 10.0 mi Variable 3.5 mph - N/A   Clear